Location: Schommer Observatory
(40.5200°N, 74.4500°W)
Time: 20:08:48
(UTC-04:00)

Vanguard 1 - All Passes

Search period start: 25 May 2018 00:00
Search period end: 04 June 2018 00:00
Orbit: 650 x 3833 km, 34.3° (Epoch: 24 May)

Date Brightness Start Highest point End Pass type
(mag) Time Alt. Az. Time Alt. Az. Time Alt. Az.
25 May - 10:30:47 10° S 10:45:50 22° SE 11:00:02 10° E daylight
25 May - 12:48:18 10° SW 13:10:01 48° SSE 13:26:26 10° E daylight
25 May - 15:13:04 10° WSW 15:35:00 68° S 15:48:08 10° E daylight
25 May - 17:40:57 10° W 17:58:30 62° SSW 18:07:56 10° ESE daylight
25 May - 20:09:00 10° W 20:18:53 28° SW 20:25:10 10° SSE daylight
26 May - 10:49:03 10° S 11:06:37 29° SE 11:22:54 10° E daylight
26 May - 13:08:46 10° SW 13:31:12 55° SSE 13:47:42 10° E daylight
26 May - 15:34:31 10° WSW 15:56:17 70° S 16:09:04 10° E daylight
26 May - 18:02:39 10° W 18:19:24 56° SSW 18:28:31 10° SE daylight
26 May - 20:31:17 10° W 20:39:08 20° SW 20:44:37 10° S daylight
27 May - 11:08:10 10° SSW 11:27:27 36° SE 11:45:03 10° E daylight
27 May - 13:29:33 10° SW 13:52:28 61° SSE 14:08:51 10° E daylight
27 May - 15:56:06 10° W 16:17:34 70° S 16:29:57 10° ESE daylight
27 May - 18:24:22 10° W 18:40:10 48° SSW 18:48:58 10° SE daylight
27 May - 20:54:29 10° WSW 20:59:15 14° SW 21:03:04 10° SSW visible
28 May - 09:14:06 10° SSE 09:25:04 16° SE 09:36:23 10° E daylight
28 May - 11:27:50 10° SSW 11:48:22 43° SE 12:06:48 10° E daylight
28 May - 13:50:35 10° WSW 14:13:47 66° SSE 14:29:57 10° E daylight
28 May - 16:17:44 10° W 16:38:46 68° S 16:50:46 10° ESE daylight
28 May - 18:46:10 10° W 19:00:46 40° SW 19:09:12 10° SSE daylight
29 May - 09:31:03 10° S 09:45:34 23° SE 10:00:43 10° E daylight
29 May - 11:47:56 10° SW 12:09:25 50° SSE 12:28:18 10° E daylight
29 May - 14:11:49 10° WSW 14:35:11 70° S 14:51:00 10° E daylight
29 May - 16:39:26 10° W 16:59:54 65° SSW 17:11:30 10° ESE daylight
29 May - 19:08:08 10° W 19:21:11 32° SW 19:29:10 10° SSE daylight
30 May - 09:49:27 10° S 10:06:08 29° SE 10:23:39 10° E daylight
30 May - 12:08:23 10° SW 12:30:34 57° SSE 12:49:39 10° E daylight
30 May - 14:33:14 10° WSW 14:56:34 72° S 15:12:00 10° E daylight
30 May - 17:01:08 10° W 17:20:53 59° SSW 17:32:08 10° SE daylight
30 May - 19:30:24 10° W 19:41:25 25° SW 19:48:43 10° S daylight
31 May - 10:08:37 10° SSW 10:26:48 37° SE 10:45:54 10° E daylight
31 May - 12:29:06 10° SW 12:51:50 63° SSE 13:10:54 10° E daylight
31 May - 14:54:45 10° W 15:17:57 72° S 15:32:58 10° ESE daylight
31 May - 17:22:53 10° W 17:41:44 52° SSW 17:52:36 10° SE daylight
31 May - 19:53:18 10° W 20:01:32 18° SW 20:07:35 10° SSW daylight
01 Jun - 08:15:17 10° SSE 08:25:04 16° SE 08:35:52 10° E daylight
01 Jun - 10:28:19 10° SSW 10:47:36 44° SE 11:07:45 10° E daylight
01 Jun - 12:50:04 10° WSW 13:13:12 68° SSE 13:32:06 10° E daylight
01 Jun - 15:16:20 10° W 15:39:16 70° S 15:53:51 10° ESE daylight
01 Jun - 17:44:43 10° W 18:02:24 44° SW 18:12:52 10° SSE daylight
01 Jun - 20:18:11 10° WSW 20:21:32 11° WSW 20:24:29 10° SW daylight
02 Jun - 08:32:17 10° S 08:45:22 22° SE 09:00:24 10° E daylight
02 Jun - 10:48:24 10° SW 11:08:31 51° SSE 11:29:21 10° E daylight
02 Jun - 13:11:14 10° WSW 13:34:38 71° S 13:53:14 10° E daylight
02 Jun - 15:37:58 10° W 16:00:30 66° SSW 16:14:39 10° ESE daylight
02 Jun - 18:06:41 10° W 18:22:52 36° SW 18:32:51 10° SSE daylight
03 Jun - 08:50:44 10° S 09:05:44 29° SE 09:23:28 10° E daylight
03 Jun - 11:08:49 10° SW 11:29:36 58° SSE 11:50:48 10° E daylight
03 Jun - 13:32:32 10° WSW 13:56:07 73° S 14:14:21 10° E daylight
03 Jun - 15:59:38 10° W 16:21:37 61° SSW 16:35:19 10° SE daylight
03 Jun - 18:28:57 10° W 18:43:09 28° SW 18:52:28 10° S daylight
